Volver al catálogo

TITAN 3C TRANSTAGE DEB

ActivoVLEO
NORAD 1961·DEBRIS·🇺🇸 United States

Lanzado Oct 15, 1965 desde Cape Canaveral Space Force Station

Loading…

Próximos Pases (próximas 24 horas)

TLE

ActualizadoSource: Space-Track

Época: Sep 14, 2026, 14:37 UTC

1 01961U 65082GW  26257.60930165  .00005134  00000-0  24839-3 0  9992
2 01961  31.8551  68.8040 0002994  49.4560 310.6357 15.17199507257745

Sigue TITAN 3C TRANSTAGE DEB en tiempo real con AllMySat

Download on the App Store